Location: De Greiden
(52.9496°N, 5.9137°E)
Time: 23:47:58
(UTC+00:00)

Feng Yun 1-1 Rocket - Pass Details

Date: 24 January 2021
Orbit: 830 x 933 km, 99.2° (Epoch: 01 March)

Event Time Altitude Azimuth Distance (km) Brightness Sun altitude
Rises 17:41:04 0° 166° (SSE) 3,383 7.3 -14.0°
Reaches altitude 10° 17:43:24 10° 168° (SSE) 2,463 6.6 -14.3°
Maximum altitude 17:48:51 76° 254° (WSW) 891 4.4 -15.1°
Drops below altitude 10° 17:54:30 10° 341° (NNW) 2,542 6.8 -16.0°
Sets 17:56:57 0° 343° (NNW) 3,500 7.5 -16.3°
